Weather History for Dayton, OH

Change the Weather History Date:

Sunday, January 13, 2013

  Actual Average Record
Temperature  
Mean Temperature 49 °F 27 °F  
Max Temperature 65 °F 34 °F 66 °F (1995)
Min Temperature 33 °F 20 °F -9 °F (1912)
Degree Days  
Heating Degree Days 16 38  
Month to date heating degree days 404 488  
Since 1 July heating degree days 2438 2647  
Cooling Degree Days 0 0  
Month to date cooling degree days 0 0  
Year to date cooling degree days 0 0  
Moisture  
Dew Point 49 °F    
Average Humidity 94    
Maximum Humidity 100    
Minimum Humidity 87    
Precipitation  
Precipitation 0.67 in 0.09 in 1.14 in (1910)
Month to date precipitation 1.43 1.23  
Year to date precipitation 1.43 1.23  
Snow  
Snow 0.00 in 0.30 in 4.40 in (1982)
Month to date snowfall 0.3 3.2  
Since 1 July snowfall 12.1 8.7  
Snow Depth 0.00 in    
Sea Level Pressure  
Sea Level Pressure 29.89 in    
Wind  
Wind Speed 12 mph (WNW)    
Max Wind Speed 29 mph    
Max Gust Speed 36 mph    
Visibility 6 miles    
Events Rain    
T = Trace of Precipitation, MM = Missing Value Source: NWS Daily Summary

Daily Weather History Graph

Daily Weather History Graph

Search for Another Location

Airport:

Trip Planner

Search our weather history database for the weather conditions in past years. The results will help you decide how hot, cold, wet, or windy it might be!

Date:

Astronomy

Jan. 13, 2013 Rise Set
Actual Time 7:57 AM EST 5:34 PM EST
Civil Twilight 7:27 AM EST 6:04 PM EST
Nautical Twilight 6:54 AM EST 6:37 PM EST
Astronomical Twilight 6:21 AM EST 7:10 PM EST
Moon 8:55 AM EST (1/13) 8:11 PM EST (1/13)
Length of Visible Light 10h 36m
Length of Day
9h 37m
Waxing Crescent, 5% of the Moon is Illuminated
Jan 13
Waxing Crescent
Jan 18
First Quarter
Jan 26
Full
Feb 3
Last Quarter
Feb 10
New

Hourly Weather History & Observations

Time (EST) Temp. Windchill Dew Point Humidity Pressure Visibility Wind Dir Wind Speed Gust Speed Precip Events Conditions
12:56 AM 64.0 °F - 60.1 °F 87% 29.76 in 10.0 mi South 15.0 mph 24.2 mph N/A   Overcast
1:56 AM 64.0 °F - 60.1 °F 87% 29.73 in 10.0 mi South 16.1 mph 24.2 mph N/A   Overcast
2:20 AM 64.4 °F - 59.0 °F 83% 29.74 in 10.0 mi South 17.3 mph 26.5 mph N/A   Overcast
2:56 AM 64.0 °F - 59.0 °F 84% 29.72 in 8.0 mi South 19.6 mph 28.8 mph 0.00 in Rain Light Rain
3:56 AM 64.0 °F - 59.0 °F 84% 29.72 in 10.0 mi South 18.4 mph 28.8 mph 0.06 in   Overcast
4:13 AM 64.4 °F - 59.0 °F 83% 29.74 in 10.0 mi South 19.6 mph 26.5 mph N/A   Overcast
4:35 AM 60.8 °F - 57.2 °F 88% 29.77 in 6.0 mi NW 16.1 mph 26.5 mph 0.03 in Rain Light Rain
4:56 AM 59.0 °F - 55.4 °F 88% 29.78 in 10.0 mi NW 6.9 mph - N/A Rain Light Rain
5:23 AM 57.2 °F - 55.4 °F 94% 29.81 in 10.0 mi Calm Calm - 0.00 in Rain Light Rain
5:56 AM 57.0 °F - 55.9 °F 96% 29.83 in 10.0 mi SSW 6.9 mph - 0.00 in Rain Light Rain
6:56 AM 57.9 °F - 57.0 °F 97% 29.86 in 10.0 mi South 13.8 mph - 0.01 in Rain Light Rain
7:10 AM 57.2 °F - 57.2 °F 100% 29.86 in 10.0 mi South 12.7 mph - 0.01 in Rain Light Rain
7:56 AM 57.9 °F - 57.0 °F 97% 29.86 in 8.0 mi South 16.1 mph - 0.05 in Rain Light Rain
8:12 AM 57.2 °F - 57.2 °F 100% 29.86 in 10.0 mi South 16.1 mph 23.0 mph 0.01 in Rain Light Rain
8:56 AM 57.9 °F - 57.0 °F 97% 29.86 in 10.0 mi South 19.6 mph 24.2 mph 0.01 in   Overcast
9:49 AM 59.0 °F - 57.2 °F 94% 29.88 in 10.0 mi South 13.8 mph 25.3 mph 0.00 in Rain Light Rain
9:56 AM 57.2 °F - 57.2 °F 100% 29.86 in 9.0 mi South 15.0 mph 23.0 mph N/A Rain Light Rain
10:56 AM 59.0 °F - 57.0 °F 93% 29.89 in 10.0 mi SSW 12.7 mph - 0.01 in   Overcast
11:21 AM 53.6 °F - 51.8 °F 94% 29.91 in 2.0 mi NW 12.7 mph - 0.00 in Rain Light Rain
11:51 AM 50.0 °F - 48.2 °F 94% 29.89 in 0.8 mi NW 4.6 mph - 0.00 in Rain Light Rain
11:56 AM 50.0 °F - 48.9 °F 96% 29.86 in 0.8 mi Variable 3.5 mph - 0.00 in   Overcast
12:06 PM 50.0 °F - 48.2 °F 94% 29.85 in 4.0 mi ENE 4.6 mph - N/A   Overcast
12:16 PM 51.8 °F - 50.0 °F 94% 29.87 in 5.0 mi Calm Calm - N/A   Overcast
12:38 PM 50.0 °F - 48.2 °F 94% 29.88 in 1.8 mi NW 9.2 mph - N/A   Overcast
12:56 PM 50.0 °F - 48.9 °F 96% 29.88 in 2.5 mi NW 4.6 mph - N/A   Overcast
1:12 PM 50.0 °F - 48.2 °F 94% 29.88 in 2.5 mi Calm Calm - N/A   Overcast
1:56 PM 52.0 °F - 51.1 °F 97% 29.84 in 5.0 mi Calm Calm - N/A   Overcast
2:22 PM 51.8 °F - 50.0 °F 94% 29.84 in 5.0 mi NW 8.1 mph - N/A   Overcast
2:30 PM 50.0 °F - 48.2 °F 94% 29.85 in 4.0 mi NNW 5.8 mph - N/A   Overcast
2:56 PM 50.0 °F - 48.9 °F 96% 29.85 in 4.0 mi NNW 5.8 mph - 0.00 in Rain Light Rain
3:05 PM 50.0 °F - 48.2 °F 94% 29.86 in 1.8 mi NNW 3.5 mph - 0.00 in Rain Rain
3:56 PM 50.0 °F - 48.9 °F 96% 29.86 in 1.8 mi Calm Calm - 0.13 in Rain Rain
4:51 PM 44.6 °F 36.4 °F 44.6 °F 100% 29.93 in 1.8 mi NW 20.7 mph 26.5 mph 0.14 in Rain Rain
4:56 PM 44.1 °F 35.7 °F 43.0 °F 96% 29.93 in 1.8 mi NW 20.7 mph 26.5 mph 0.15 in Rain Rain
5:12 PM 42.8 °F 34.5 °F 41.0 °F 93% 29.92 in 5.0 mi NW 18.4 mph - 0.02 in Rain Rain
5:56 PM 41.0 °F 33.9 °F 39.0 °F 93% 29.90 in 10.0 mi North 12.7 mph - 0.05 in   Overcast
6:56 PM 39.9 °F 32.1 °F 39.0 °F 97% 29.97 in 2.5 mi NW 13.8 mph - 0.06 in Rain Rain
7:56 PM 39.0 °F 31.4 °F 37.9 °F 96% 29.97 in 4.0 mi NNW 12.7 mph - 0.07 in Rain Light Rain
8:15 PM 39.2 °F 30.2 °F 37.4 °F 93% 29.98 in 2.5 mi NW 17.3 mph - 0.02 in Rain Light Rain
8:37 PM 37.4 °F 27.8 °F 35.6 °F 93% 29.99 in 8.0 mi NW 17.3 mph 25.3 mph 0.04 in Rain Light Rain
8:48 PM 37.4 °F 28.9 °F 35.6 °F 93% 30.00 in 10.0 mi WNW 13.8 mph - 0.04 in   Overcast
8:56 PM 37.0 °F 26.7 °F 36.0 °F 96% 30.01 in 10.0 mi WNW 19.6 mph 26.5 mph 0.04 in   Overcast
9:56 PM 36.0 °F 26.7 °F 34.0 °F 93% 30.05 in 6.0 mi NW 15.0 mph 24.2 mph N/A   Overcast
10:20 PM 35.6 °F 25.5 °F 33.8 °F 93% 30.06 in 10.0 mi NW 17.3 mph - N/A   Overcast
10:56 PM 35.1 °F 26.4 °F 33.1 °F 92% 30.09 in 10.0 mi NW 12.7 mph - N/A   Overcast
11:47 PM 33.8 °F 23.2 °F 30.2 °F 87% 30.12 in 8.0 mi WNW 17.3 mph - N/A   Overcast
11:56 PM 33.1 °F 23.9 °F 30.0 °F 89% 30.14 in 9.0 mi WNW 12.7 mph - N/A   Overcast